Location: Cheyres
(46.8153°N, 6.7877°E)
Time: 04:18:06
(UTC+00:00)

Cosmos 1340 Rocket - Pass Details

Date: 11 May 2021
Orbit: 527 x 559 km, 81.2° (Epoch: 18 June)

Event Time Altitude Azimuth Distance (km) Brightness Sun altitude
Rises 22:25:45 0° 341° (NNW) 2,758 7.9 -23.5°
Reaches altitude 10° 22:28:04 10° 332° (NNW) 1,856 6.6 -23.6°
Maximum altitude 22:31:48 35° 267° (W) 908 3.9 -23.8°
Enters shadow 22:31:56 35° 262° (W) 909 3.9 -23.8°
